User: anonymous
Location: Albany
(35.0000°S, 118.0000°E)
Time: 07:41:58
(UTC-04:00)
Language:

Cosmos 1346 Rocket - Orbit

View from above orbital plane
View from above orbital plane
View from above satellite
View from above satellite

Ground track
Ground track

The orbit data is extracted from the following two-line orbital elements,

1 13121U 82027B   14261.12034650  .00002220  00000-0  15227-3 0  4881
2 13121 081.1698 189.7886 0027145 236.8703 122.9914 15.05357103765879
Epoch (UTC): 18 September 2014 02:53:17
Eccentricity: 0.0027145
inclination: 81.1698°
perigee height: 531 km
apogee height: 569 km
right ascension of ascending node: 189.7886°
argument of perigee: 236.8703°
revolutions per day: 15.05357103
mean anomaly at epoch: 122.9914°
orbit number at epoch: 76587

The dashed part of the orbit path shows where the satellite is in the earth's shadow,  

DLR